| time (UTC) | temp F | wind direction | speed MPH | gust MPH | rain 1hr in | rain 24hr in | rain mn in | humidity % | barometer mb |
| 20260508224545 | 55 | 195 | 6.0 | 15.0 | 0.00 | 0.02 | 0.01 | 68 | 1010.4 |
| 20260508223040 | 55 | 205 | 8.0 | 18.0 | 0.00 | 0.02 | 0.01 | 68 | 1010.3 |
| 20260508221506 | 55 | 271 | 6.0 | 14.0 | 0.00 | 0.02 | 0.01 | 71 | 1010.3 |
| 20260508220026 | 55 | 214 | 5.0 | 13.0 | 0.00 | 0.02 | 0.01 | 71 | 1010.7 |
| 20260508214508 | 54 | 237 | 7.0 | 11.0 | 0.00 | 0.02 | 0.01 | 75 | 1010.7 |
| 20260508213032 | 53 | 259 | 5.0 | 9.0 | 0.00 | 0.02 | 0.01 | 77 | 1010.6 |
| 20260508211554 | 52 | 248 | 4.0 | 9.0 | 0.01 | 0.02 | 0.01 | 77 | 1010.5 |
| 20260508210045 | 52 | 274 | 6.0 | 10.0 | 0.01 | 0.02 | 0.01 | 77 | 1010.6 |
| 20260508204557 | 51 | 266 | 4.0 | 13.0 | 0.01 | 0.02 | 0.01 | 78 | 1010.8 |
| 20260508203040 | 52 | 262 | 6.0 | 18.0 | 0.01 | 0.02 | 0.01 | 75 | 1011.2 |
| 20260508201558 | 55 | 251 | 11.0 | 20.0 | 0.00 | 0.01 | 0.00 | 63 | 1011.0 |
| 20260508200036 | 58 | 231 | 10.0 | 19.0 | 0.00 | 0.01 | 0.00 | 52 | 1010.5 |
| 20260508194600 | 58 | 204 | 6.0 | 14.0 | 0.00 | 0.01 | 0.00 | 52 | 1010.4 |
| 20260508194503 | 58 | 164 | 7.0 | 14.0 | 0.00 | 0.01 | 0.00 | 51 | 1010.4 |
| 20260508193026 | 58 | 254 | 8.0 | 18.0 | 0.00 | 0.01 | 0.00 | 53 | 1010.5 |
| 20260508191547 | 57 | 283 | 2.0 | 5.0 | 0.00 | 0.01 | 0.00 | 59 | 1010.6 |
| 20260508190040 | 56 | 322 | 5.0 | 10.0 | 0.00 | 0.01 | 0.00 | 59 | 1010.5 |
| 20260508184522 | 57 | 326 | 4.0 | 12.0 | 0.00 | 0.01 | 0.00 | 58 | 1010.4 |
| 20260508183048 | 56 | 296 | 10.0 | 19.0 | 0.00 | 0.01 | 0.00 | 59 | 1010.7 |
| 20260508181534 | 58 | 224 | 3.0 | 17.0 | 0.00 | 0.01 | 0.00 | 52 | 1010.4 |
| 20260508180050 | 58 | 259 | 9.0 | 16.0 | 0.00 | 0.01 | 0.00 | 51 | 1011.0 |
| 20260508174516 | 58 | 196 | 7.0 | 14.0 | 0.00 | 0.01 | 0.00 | 53 | 1011.2 |
| 20260508173053 | 56 | 261 | 6.0 | 17.0 | 0.00 | 0.01 | 0.00 | 55 | 1011.3 |
| 20260508171515 | 54 | 236 | 5.0 | 15.0 | 0.00 | 0.01 | 0.00 | 60 | 1011.7 |
| 20260508170040 | 55 | 279 | 8.0 | 14.0 | 0.00 | 0.01 | 0.00 | 54 | 1011.8 |
| 20260508164520 | 56 | 278 | 7.0 | 12.0 | 0.00 | 0.01 | 0.00 | 51 | 1011.5 |
| 20260508163058 | 56 | 278 | 7.0 | 11.0 | 0.00 | 0.01 | 0.00 | 51 | 1011.7 |
| 20260508161538 | 57 | 231 | 5.0 | 13.0 | 0.00 | 0.01 | 0.00 | 55 | 1011.6 |
| 20260508160050 | 56 | 243 | 5.0 | 19.0 | 0.00 | 0.01 | 0.00 | 53 | 1011.7 |
| 20260508154513 | 55 | 266 | 10.0 | 24.0 | 0.00 | 0.01 | 0.00 | 54 | 1011.9 |
| 20260508153048 | 56 | 278 | 5.0 | 17.0 | 0.00 | 0.01 | 0.00 | 56 | 1011.8 |
| 20260508151513 | 56 | 258 | 8.0 | 20.0 | 0.00 | 0.01 | 0.00 | 56 | 1011.7 |
| 20260508150059 | 55 | 252 | 12.0 | 19.0 | 0.00 | 0.01 | 0.00 | 54 | 1011.6 |
| 20260508144540 | 54 | 187 | 10.0 | 19.0 | 0.00 | 0.01 | 0.00 | 55 | 1011.5 |
| 20260508143108 | 55 | 219 | 10.0 | 20.0 | 0.00 | 0.01 | 0.00 | 54 | 1011.8 |
| 20260508141534 | 54 | 229 | 6.0 | 19.0 | 0.00 | 0.01 | 0.00 | 57 | 1011.9 |
| 20260508140009 | 53 | 228 | 5.0 | 14.0 | 0.00 | 0.01 | 0.00 | 60 | 1011.9 |
| 20260508134536 | 52 | 252 | 5.0 | 10.0 | 0.00 | 0.01 | 0.00 | 61 | 1012.0 |
| 20260508133014 | 50 | 112 | 4.0 | 11.0 | 0.00 | 0.01 | 0.00 | 65 | 1012.2 |
| 20260508131547 | 49 | 217 | 4.0 | 8.0 | 0.00 | 0.01 | 0.00 | 68 | 1012.4 |
| 20260508130020 | 47 | 247 | 2.0 | 6.0 | 0.00 | 0.01 | 0.00 | 73 | 1012.5 |
| 20260508124542 | 45 | 213 | 2.0 | 5.0 | 0.00 | 0.01 | 0.00 | 77 | 1012.5 |
| 20260508123020 | 41 | 225 | 1.0 | 4.0 | 0.00 | 0.01 | 0.00 | 84 | 1012.6 |
| 20260508121546 | 39 | 215 | 1.0 | 2.0 | 0.00 | 0.01 | 0.00 | 88 | 1012.6 |
| 20260508120024 | 38 | 127 | 0.0 | 0.0 | 0.00 | 0.01 | 0.00 | 94 | 1012.5 |
| 20260508114547 | 37 | 127 | 0.0 | 0.0 | 0.00 | 0.01 | 0.00 | 95 | 1012.6 |
| 20260508113030 | 36 | 127 | 0.0 | 0.0 | 0.00 | 0.01 | 0.00 | 95 | 1012.7 |
| 20260508111545 | 35 | 127 | 0.0 | 0.0 | 0.00 | 0.01 | 0.00 | 95 | 1012.7 |
| 20260508110041 | 33 | 127 | 0.0 | 0.0 | 0.00 | 0.01 | 0.00 | 95 | 1012.7 |
| 20260508104554 | 33 | 127 | 0.0 | 0.0 | 0.00 | 0.01 | 0.00 | 95 | 1012.5 |
| 20260508103023 | 32 | 127 | 0.0 | 0.0 | 0.00 | 0.01 | 0.00 | 94 | 1012.3 |
| 20260508101616 | 32 | 127 | 0.0 | 0.0 | 0.00 | 0.01 | 0.00 | 95 | 1012.3 |
| 20260508101502 | 32 | 127 | 0.0 | 0.0 | 0.00 | 0.01 | 0.00 | 95 | 1012.3 |
| 20260508100040 | 31 | 221 | 0.0 | 0.0 | 0.00 | 0.01 | 0.00 | 94 | 1012.2 |
| 20260508094511 | 31 | 221 | 0.0 | 0.0 | 0.00 | 0.01 | 0.00 | 93 | 1012.0 |
| 20260508093044 | 31 | 221 | 0.0 | 0.0 | 0.00 | 0.01 | 0.00 | 93 | 1012.0 |
| 20260508091610 | 32 | 221 | 0.0 | 0.0 | 0.00 | 0.01 | 0.00 | 93 | 1011.9 |
| 20260508091502 | 32 | 221 | 0.0 | 0.0 | 0.00 | 0.01 | 0.00 | 93 | 1011.9 |
| 20260508090056 | 32 | 221 | 0.0 | 0.0 | 0.00 | 0.01 | 0.00 | 92 | 1012.0 |
| 20260508084600 | 32 | 221 | 0.0 | 0.0 | 0.00 | 0.01 | 0.00 | 91 | 1011.8 |
| 20260508084508 | 32 | 221 | 0.0 | 0.0 | 0.00 | 0.01 | 0.00 | 91 | 1011.8 |
| 20260508083052 | 33 | 221 | 0.0 | 0.0 | 0.00 | 0.01 | 0.00 | 91 | 1011.8 |
| 20260508081538 | 33 | 221 | 0.0 | 0.0 | 0.00 | 0.01 | 0.00 | 89 | 1011.7 |
| 20260508080017 | 34 | 221 | 0.0 | 0.0 | 0.00 | 0.01 | 0.00 | 88 | 1011.9 |
| 20260508074541 | 35 | 221 | 0.0 | 0.0 | 0.00 | 0.01 | 0.00 | 88 | 1011.8 |
| 20260508073012 | 36 | 221 | 0.0 | 0.0 | 0.00 | 0.01 | 0.00 | 86 | 1011.8 |
| 20260508071546 | 37 | 221 | 0.0 | 1.0 | 0.00 | 0.01 | 0.00 | 83 | 1011.7 |
| 20260508070010 | 38 | 221 | 0.0 | 2.0 | 0.00 | 0.01 | 0.00 | 83 | 1011.9 |
| 20260508064537 | 40 | 211 | 0.0 | 2.0 | 0.00 | 0.01 | 0.00 | 77 | 1012.1 |
| 20260508063014 | 41 | 201 | 0.0 | 2.0 | 0.00 | 0.01 | 0.00 | 75 | 1012.0 |
| 20260508061542 | 42 | 211 | 1.0 | 7.0 | 0.00 | 0.01 | 0.00 | 72 | 1012.1 |
| 20260508060020 | 42 | 254 | 3.0 | 10.0 | 0.00 | 0.01 | 0.00 | 72 | 1012.0 |
| 20260508054546 | 41 | 268 | 6.0 | 8.0 | 0.00 | 0.01 | 0.00 | 79 | 1012.1 |
| 20260508053041 | 38 | 283 | 2.0 | 6.0 | 0.00 | 0.01 | 0.00 | 90 | 1012.3 |
| 20260508051547 | 37 | 230 | 0.0 | 0.0 | 0.00 | 0.01 | 0.00 | 92 | 1012.3 |
| 20260508050023 | 38 | 230 | 0.0 | 0.0 | 0.00 | 0.01 | 0.00 | 92 | 1012.3 |
| 20260508044544 | 38 | 230 | 0.0 | 3.0 | 0.00 | 0.01 | 0.00 | 91 | 1012.1 |
| 20260508043022 | 39 | 329 | 0.0 | 5.0 | 0.00 | 0.01 | 0.00 | 90 | 1012.1 |
| 20260508041616 | 40 | 262 | 1.0 | 4.0 | 0.00 | 0.01 | 0.00 | 92 | 1012.0 |
| 20260508040021 | 39 | 274 | 0.0 | 2.0 | 0.00 | 0.01 | 0.01 | 92 | 1011.7 |
| 20260508034514 | 39 | 274 | 0.0 | 3.0 | 0.00 | 0.01 | 0.01 | 90 | 1011.7 |
| 20260508033010 | 41 | 274 | 2.0 | 3.0 | 0.00 | 0.01 | 0.01 | 88 | 1011.6 |
| 20260508031544 | 43 | 274 | 1.0 | 3.0 | 0.00 | 0.01 | 0.01 | 83 | 1011.5 |
| 20260508030030 | 44 | 290 | 1.0 | 5.0 | 0.00 | 0.01 | 0.01 | 80 | 1011.4 |
| 20260508024546 | 44 | 301 | 2.0 | 4.0 | 0.01 | 0.01 | 0.01 | 79 | 1011.4 |
| 20260508023033 | 45 | 311 | 5.0 | 6.0 | 0.01 | 0.01 | 0.01 | 76 | 1011.3 |
| 20260508021601 | 46 | 332 | 9.0 | 21.0 | 0.01 | 0.01 | 0.01 | 72 | 1011.2 |
| 20260508021511 | 46 | 295 | 9.0 | 21.0 | 0.01 | 0.01 | 0.01 | 72 | 1011.2 |
| 20260508020045 | 47 | 309 | 16.0 | 37.0 | 0.01 | 0.01 | 0.01 | 73 | 1010.8 |
| 20260508014518 | 52 | 271 | 8.0 | 13.0 | 0.00 | 0.00 | 0.00 | 50 | 1010.1 |
| 20260508013058 | 52 | 245 | 4.0 | 10.0 | 0.00 | 0.00 | 0.00 | 50 | 1009.8 |
| 20260508011544 | 53 | 240 | 3.0 | 8.0 | 0.00 | 0.00 | 0.00 | 48 | 1009.6 |
| 20260508010015 | 53 | 272 | 6.0 | 11.0 | 0.00 | 0.00 | 0.00 | 48 | 1009.1 |
| 20260508004556 | 54 | 268 | 6.0 | 11.0 | 0.00 | 0.00 | 0.00 | 46 | 1009.0 |
| 20260508003012 | 54 | 280 | 4.0 | 9.0 | 0.00 | 0.00 | 0.00 | 45 | 1008.8 |
| 20260508001549 | 55 | 278 | 6.0 | 12.0 | 0.00 | 0.00 | 0.00 | 44 | 1008.7 |
| 20260508000020 | 55 | 236 | 4.0 | 11.0 | 0.00 | 0.00 | 0.00 | 44 | 1008.5 |
| 20260507234521 | 56 | 236 | 5.0 | 10.0 | 0.00 | 0.00 | 0.00 | 43 | 1008.3 |
| 20260507233032 | 55 | 223 | 4.0 | 11.0 | 0.00 | 0.00 | 0.00 | 45 | 1008.2 |
| 20260507231516 | 56 | 257 | 2.0 | 8.0 | 0.00 | 0.00 | 0.00 | 46 | 1008.1 |
| 20260507230049 | 56 | 238 | 6.0 | 10.0 | 0.00 | 0.00 | 0.00 | 45 | 1008.1 |